Location: Ffm
(50.0000°N, 8.5000°E)
Time: 10:43:44
(UTC+01:00)

Envisat - Pass Details

Date: 04 November 2020
Orbit: 764 x 766 km, 98.1° (Epoch: 03 December)

Event Time Altitude Azimuth Distance (km) Brightness Sun altitude
Rises 06:19:59 0° 16° (NNE) 3,244 6.3 -10.2°
Reaches altitude 10° 06:22:20 10° 19° (NNE) 2,312 5.6 -9.8°
Maximum altitude 06:27:24 65° 102° (ESE) 839 3.5 -9.0°
Drops below altitude 10° 06:32:26 10° 184° (S) 2,294 5.6 -8.2°
Sets 06:34:44 0° 187° (S) 3,216 6.3 -7.9°
